Wetterdaten: Sonntag, 23.03.2014
Datum Zeit Temperatur Luftfeuchte Luftdruck Regen Wind Richtung Richtung Taupunkt Windchill Windben
23.03.2014 00:00 3,1 C 96 % 1008,2 hPa 0,0 l/m 0,0 km/h (0 Bft) SW 225 2,5 C 16,1 C 0,0 km/h (0 Bft)
23.03.2014 00:05 3,1 C 96 % 1008,2 hPa 0,0 l/m 0,0 km/h (0 Bft) SW 225 2,5 C 16,1 C 0,0 km/h (0 Bft)
23.03.2014 00:10 3,1 C 96 % 1008,2 hPa 0,0 l/m 0,0 km/h (0 Bft) SW 225 2,5 C 16,1 C 0,0 km/h (0 Bft)
23.03.2014 00:15 3,1 C 96 % 1008,2 hPa 0,0 l/m 0,0 km/h (0 Bft) SW 225 2,5 C 16,1 C 0,0 km/h (0 Bft)
23.03.2014 00:20 3,1 C 96 % 1008,2 hPa 0,0 l/m 0,0 km/h (0 Bft) SW 225 2,5 C 16,1 C 0,0 km/h (0 Bft)
23.03.2014 00:25 3,1 C 96 % 1008,1 hPa 0,0 l/m 0,0 km/h (0 Bft) SW 225 2,5 C 16,1 C 0,0 km/h (0 Bft)
23.03.2014 00:30 3,1 C 96 % 1008,1 hPa 0,0 l/m 0,0 km/h (0 Bft) SW 225 2,5 C 16,1 C 0,0 km/h (0 Bft)
23.03.2014 00:35 3,1 C 96 % 1008,1 hPa 0,0 l/m 0,0 km/h (0 Bft) SW 225 2,5 C 16,1 C 0,0 km/h (0 Bft)
23.03.2014 00:40 3,1 C 96 % 1008,1 hPa 0,0 l/m 0,0 km/h (0 Bft) SW 225 2,5 C 16,1 C 0,0 km/h (0 Bft)
23.03.2014 00:45 3,1 C 96 % 1008,1 hPa 0,0 l/m 0,0 km/h (0 Bft) SW 225 2,5 C 16,1 C 0,0 km/h (0 Bft)
23.03.2014 00:50 3,1 C 96 % 1008,1 hPa 0,0 l/m 0,0 km/h (0 Bft) SW 225 2,5 C 16,1 C 0,0 km/h (0 Bft)
23.03.2014 00:55 3,2 C 96 % 1008,1 hPa 0,0 l/m 0,0 km/h (0 Bft) SW 225 2,6 C 16,1 C 0,0 km/h (0 Bft)
23.03.2014 01:00 3,2 C 96 % 1008,1 hPa 0,0 l/m 0,0 km/h (0 Bft) SW 225 2,6 C 16,1 C 0,0 km/h (0 Bft)
23.03.2014 01:05 3,2 C 96 % 1008,1 hPa 0,0 l/m 0,0 km/h (0 Bft) SW 225 2,6 C 16,1 C 0,0 km/h (0 Bft)
23.03.2014 01:10 3,2 C 96 % 1008,1 hPa 0,0 l/m 0,0 km/h (0 Bft) SW 225 2,6 C 16,1 C 0,0 km/h (0 Bft)
23.03.2014 01:15 3,2 C 96 % 1008,1 hPa 0,0 l/m 0,0 km/h (0 Bft) SW 225 2,6 C 16,1 C 0,0 km/h (0 Bft)
23.03.2014 01:20 3,2 C 96 % 1008,1 hPa 0,0 l/m 0,0 km/h (0 Bft) SW 225 2,6 C 16,1 C 0,0 km/h (0 Bft)
23.03.2014 01:25 3,2 C 96 % 1007,9 hPa 0,0 l/m 0,0 km/h (0 Bft) SW 225 2,6 C 16,1 C 0,0 km/h (0 Bft)
23.03.2014 01:30 3,2 C 96 % 1007,9 hPa 0,0 l/m 0,0 km/h (0 Bft) SW 225 2,6 C 16,1 C 0,0 km/h (0 Bft)
23.03.2014 01:35 3,2 C 96 % 1007,9 hPa 0,0 l/m 0,0 km/h (0 Bft) SW 225 2,6 C 16,1 C 0,0 km/h (0 Bft)
23.03.2014 01:40 3,2 C 96 % 1007,9 hPa 0,0 l/m 0,0 km/h (0 Bft) SW 225 2,6 C 16,1 C 0,0 km/h (0 Bft)
23.03.2014 01:45 3,1 C 96 % 1007,8 hPa 0,0 l/m 0,0 km/h (0 Bft) SW 225 2,5 C 16,1 C 0,0 km/h (0 Bft)
23.03.2014 01:50 3,0 C 96 % 1007,8 hPa 0,0 l/m 0,0 km/h (0 Bft) SW 225 2,4 C 16,1 C 0,0 km/h (0 Bft)
23.03.2014 01:55 3,0 C 96 % 1007,8 hPa 0,0 l/m 0,0 km/h (0 Bft) SW 225 2,4 C 16,1 C 0,0 km/h (0 Bft)
23.03.2014 02:00 2,8 C 97 % 1007,8 hPa 0,0 l/m 0,0 km/h (0 Bft) SW 225 2,4 C 16,1 C 0,0 km/h (0 Bft)
23.03.2014 02:05 2,7 C 97 % 1007,7 hPa 0,0 l/m 0,0 km/h (0 Bft) SW 225 2,3 C 16,1 C 0,0 km/h (0 Bft)
23.03.2014 02:10 2,6 C 97 % 1007,7 hPa 0,0 l/m 0,0 km/h (0 Bft) SW 225 2,2 C 16,1 C 0,0 km/h (0 Bft)
23.03.2014 02:15 2,4 C 97 % 1007,7 hPa 0,0 l/m 0,0 km/h (0 Bft) SW 225 2,0 C 16,1 C 0,0 km/h (0 Bft)
23.03.2014 02:20 2,3 C 97 % 1007,7 hPa 0,0 l/m 0,0 km/h (0 Bft) SW 225 1,9 C 16,1 C 0,0 km/h (0 Bft)
23.03.2014 02:25 2,1 C 97 % 1007,8 hPa 0,0 l/m 0,0 km/h (0 Bft) SW 225 1,7 C 16,1 C 0,0 km/h (0 Bft)
23.03.2014 02:30 2,1 C 97 % 1007,8 hPa 0,0 l/m 0,0 km/h (0 Bft) SW 225 1,7 C 16,1 C 0,0 km/h (0 Bft)
23.03.2014 02:35 2,0 C 97 % 1007,8 hPa 0,0 l/m 0,0 km/h (0 Bft) SW 225 1,6 C 16,1 C 0,0 km/h (0 Bft)
23.03.2014 02:40 1,9 C 97 % 1007,8 hPa 0,0 l/m 0,0 km/h (0 Bft) SW 225 1,5 C 16,1 C 0,0 km/h (0 Bft)
23.03.2014 02:45 1,8 C 97 % 1007,8 hPa 0,0 l/m 0,0 km/h (0 Bft) SW 225 1,4 C 16,1 C 0,0 km/h (0 Bft)
23.03.2014 02:48 1,7 C 97 % 1007,8 hPa 0,0 l/m 0,0 km/h (0 Bft) SW 225 1,3 C 16,1 C 0,0 km/h (0 Bft)
23.03.2014 02:50 1,7 C 97 % 1007,8 hPa 0,0 l/m 0,0 km/h (0 Bft) SW 225 1,3 C 16,1 C 0,0 km/h (0 Bft)
23.03.2014 02:55 1,6 C 97 % 1007,8 hPa 0,0 l/m 0,0 km/h (0 Bft) SW 225 1,2 C 16,1 C 0,0 km/h (0 Bft)
23.03.2014 03:00 1,3 C 97 % 1007,8 hPa 0,0 l/m 0,0 km/h (0 Bft) SW 225 0,9 C 16,1 C 0,0 km/h (0 Bft)
23.03.2014 03:05 1,3 C 97 % 1007,7 hPa 0,0 l/m 0,0 km/h (0 Bft) SW 225 0,9 C 16,1 C 0,0 km/h (0 Bft)
23.03.2014 03:10 1,2 C 97 % 1007,7 hPa 0,0 l/m 0,0 km/h (0 Bft) SW 225 0,8 C 16,1 C 0,0 km/h (0 Bft)
23.03.2014 03:15 1,2 C 97 % 1007,7 hPa 0,0 l/m 0,0 km/h (0 Bft) SW 225 0,8 C 16,1 C 0,0 km/h (0 Bft)
23.03.2014 03:20 1,1 C 97 % 1007,7 hPa 0,0 l/m 0,0 km/h (0 Bft) SW 225 0,7 C 16,1 C 0,0 km/h (0 Bft)
23.03.2014 03:25 1,1 C 97 % 1007,6 hPa 0,0 l/m 0,0 km/h (0 Bft) SW 225 0,7 C 16,1 C 0,0 km/h (0 Bft)
23.03.2014 03:30 1,1 C 97 % 1007,6 hPa 0,0 l/m 0,0 km/h (0 Bft) SW 225 0,7 C 16,1 C 0,0 km/h (0 Bft)
23.03.2014 03:35 1,1 C 97 % 1007,6 hPa 0,0 l/m 0,0 km/h (0 Bft) SW 225 0,7 C 16,1 C 0,0 km/h (0 Bft)
23.03.2014 03:40 1,0 C 97 % 1007,6 hPa 0,0 l/m 0,0 km/h (0 Bft) SW 225 0,6 C 16,1 C 0,0 km/h (0 Bft)
23.03.2014 03:45 1,0 C 97 % 1007,6 hPa 0,0 l/m 0,0 km/h (0 Bft) SW 225 0,6 C 16,1 C 0,0 km/h (0 Bft)
23.03.2014 03:50 1,0 C 97 % 1007,6 hPa 0,0 l/m 0,0 km/h (0 Bft) SW 225 0,6 C 16,1 C 0,0 km/h (0 Bft)
23.03.2014 03:55 0,9 C 97 % 1007,6 hPa 0,0 l/m 0,0 km/h (0 Bft) SW 225 0,5 C 16,1 C 0,0 km/h (0 Bft)
23.03.2014 04:00 0,8 C 97 % 1007,6 hPa 0,0 l/m 0,0 km/h (0 Bft) SW 225 0,4 C 16,1 C 0,0 km/h (0 Bft)
23.03.2014 04:05 0,8 C 97 % 1007,7 hPa 0,0 l/m 0,0 km/h (0 Bft) SW 225 0,4 C 16,1 C 0,0 km/h (0 Bft)
23.03.2014 04:10 0,8 C 97 % 1007,7 hPa 0,0 l/m 0,0 km/h (0 Bft) SW 225 0,4 C 16,1 C 0,0 km/h (0 Bft)
23.03.2014 04:15 0,8 C 97 % 1007,7 hPa 0,0 l/m 0,0 km/h (0 Bft) SW 225 0,4 C 16,1 C 0,0 km/h (0 Bft)
23.03.2014 04:20 0,7 C 97 % 1007,7 hPa 0,0 l/m 0,0 km/h (0 Bft) SW 225 0,3 C 16,1 C 0,0 km/h (0 Bft)
23.03.2014 04:25 0,7 C 97 % 1007,6 hPa 0,0 l/m 0,0 km/h (0 Bft) SW 225 0,3 C 16,1 C 0,0 km/h (0 Bft)
23.03.2014 04:30 0,6 C 97 % 1007,6 hPa 0,0 l/m 0,0 km/h (0 Bft) SW 225 0,2 C 16,1 C 0,0 km/h (0 Bft)
23.03.2014 04:35 0,6 C 97 % 1007,6 hPa 0,0 l/m 0,0 km/h (0 Bft) SW 225 0,2 C 16,1 C 0,0 km/h (0 Bft)
23.03.2014 04:40 0,5 C 97 % 1007,6 hPa 0,0 l/m 0,0 km/h (0 Bft) SW 225 0,1 C 16,1 C 0,0 km/h (0 Bft)
23.03.2014 04:45 0,5 C 97 % 1007,4 hPa 0,0 l/m 0,0 km/h (0 Bft) SW 225 0,1 C 16,1 C 0,0 km/h (0 Bft)
23.03.2014 04:50 0,4 C 97 % 1007,4 hPa 0,0 l/m 0,0 km/h (0 Bft) SW 225 -0,0 C 16,1 C 0,0 km/h (0 Bft)
23.03.2014 04:55 0,4 C 97 % 1007,4 hPa 0,0 l/m 0,0 km/h (0 Bft) SW 225 -0,0 C 16,1 C 0,0 km/h (0 Bft)
23.03.2014 05:00 0,4 C 97 % 1007,4 hPa 0,0 l/m 0,0 km/h (0 Bft) SW 225 -0,0 C 16,1 C 0,0 km/h (0 Bft)
23.03.2014 05:05 0,4 C 97 % 1007,3 hPa 0,0 l/m 0,0 km/h (0 Bft) SW 225 -0,0 C 16,1 C 0,0 km/h (0 Bft)
23.03.2014 05:10 0,4 C 97 % 1007,3 hPa 0,0 l/m 0,0 km/h (0 Bft) SW 225 -0,0 C 16,1 C 0,0 km/h (0 Bft)
23.03.2014 05:15 0,4 C 97 % 1007,3 hPa 0,0 l/m 0,0 km/h (0 Bft) SW 225 -0,0 C 16,1 C 0,0 km/h (0 Bft)
23.03.2014 05:20 0,4 C 97 % 1007,3 hPa 0,0 l/m 0,0 km/h (0 Bft) SW 225 -0,0 C 16,1 C 0,0 km/h (0 Bft)
23.03.2014 05:25 0,4 C 97 % 1007,5 hPa 0,0 l/m 0,0 km/h (0 Bft) SW 225 -0,0 C 16,1 C 0,0 km/h (0 Bft)
23.03.2014 05:30 0,4 C 97 % 1007,5 hPa 0,0 l/m 0,0 km/h (0 Bft) SW 225 -0,0 C 16,1 C 0,0 km/h (0 Bft)
23.03.2014 05:35 0,4 C 97 % 1007,5 hPa 0,0 l/m 0,0 km/h (0 Bft) SW 225 -0,0 C 16,1 C 0,0 km/h (0 Bft)
23.03.2014 05:40 0,4 C 97 % 1007,5 hPa 0,0 l/m 0,0 km/h (0 Bft) SW 225 -0,0 C 16,1 C 0,0 km/h (0 Bft)
23.03.2014 05:45 0,4 C 97 % 1007,2 hPa 0,0 l/m 0,0 km/h (0 Bft) SW 225 -0,0 C 16,1 C 0,0 km/h (0 Bft)
23.03.2014 05:50 0,4 C 97 % 1007,2 hPa 0,0 l/m 0,0 km/h (0 Bft) SW 225 -0,0 C 16,1 C 0,0 km/h (0 Bft)
23.03.2014 05:55 0,4 C 97 % 1007,2 hPa 0,0 l/m 0,0 km/h (0 Bft) SW 225 -0,0 C 16,1 C 0,0 km/h (0 Bft)
23.03.2014 06:00 0,4 C 97 % 1007,2 hPa 0,0 l/m 0,0 km/h (0 Bft) SW 225 -0,0 C 16,1 C 0,0 km/h (0 Bft)
23.03.2014 06:05 0,4 C 97 % 1007,1 hPa 0,0 l/m 0,0 km/h (0 Bft) SW 225 -0,0 C 16,1 C 0,0 km/h (0 Bft)
23.03.2014 06:10 0,4 C 97 % 1007,1 hPa 0,0 l/m 0,0 km/h (0 Bft) SW 225 -0,0 C 16,1 C 0,0 km/h (0 Bft)
23.03.2014 06:15 0,3 C 97 % 1007,1 hPa 0,0 l/m 0,0 km/h (0 Bft) SW 225 -0,1 C 16,1 C 0,0 km/h (0 Bft)
23.03.2014 06:20 0,2 C 97 % 1007,1 hPa 0,0 l/m 0,0 km/h (0 Bft) SW 225 -0,2 C 16,1 C 0,0 km/h (0 Bft)
23.03.2014 06:25 0,3 C 97 % 1007,0 hPa 0,0 l/m 0,0 km/h (0 Bft) SW 225 -0,1 C 16,1 C 0,0 km/h (0 Bft)
23.03.2014 06:30 0,3 C 97 % 1007,0 hPa 0,0 l/m 0,0 km/h (0 Bft) SW 225 -0,1 C 16,1 C 0,0 km/h (0 Bft)
23.03.2014 06:35 0,3 C 97 % 1007,0 hPa 0,0 l/m 0,0 km/h (0 Bft) SW 225 -0,1 C 16,1 C 0,0 km/h (0 Bft)
23.03.2014 06:40 0,2 C 97 % 1007,0 hPa 0,0 l/m 0,0 km/h (0 Bft) SW 225 -0,2 C 16,1 C 0,0 km/h (0 Bft)
23.03.2014 06:45 0,2 C 97 % 1006,9 hPa 0,0 l/m 0,0 km/h (0 Bft) SW 225 -0,2 C 16,1 C 0,0 km/h (0 Bft)
23.03.2014 06:50 0,2 C 97 % 1006,9 hPa 0,0 l/m 0,0 km/h (0 Bft) SW 225 -0,2 C 16,1 C 0,0 km/h (0 Bft)
23.03.2014 06:55 0,2 C 97 % 1006,9 hPa 0,0 l/m 0,0 km/h (0 Bft) SW 225 -0,2 C 16,1 C 0,0 km/h (0 Bft)
23.03.2014 07:00 0,3 C 97 % 1006,9 hPa 0,0 l/m 0,0 km/h (0 Bft) SW 225 -0,1 C 16,1 C 0,0 km/h (0 Bft)
23.03.2014 07:05 0,3 C 97 % 1007,1 hPa 0,0 l/m 0,0 km/h (0 Bft) SW 225 -0,1 C 16,1 C 0,0 km/h (0 Bft)
23.03.2014 07:10 0,3 C 97 % 1007,1 hPa 0,0 l/m 0,0 km/h (0 Bft) SW 225 -0,1 C 16,1 C 0,0 km/h (0 Bft)
23.03.2014 07:15 0,3 C 97 % 1007,1 hPa 0,0 l/m 0,0 km/h (0 Bft) SW 225 -0,1 C 16,1 C 0,0 km/h (0 Bft)
23.03.2014 07:20 0,3 C 97 % 1007,1 hPa 0,0 l/m 0,0 km/h (0 Bft) SW 225 -0,1 C 16,1 C 0,0 km/h (0 Bft)
23.03.2014 07:25 0,3 C 97 % 1006,8 hPa 0,0 l/m 0,0 km/h (0 Bft) SW 225 -0,1 C 16,1 C 0,0 km/h (0 Bft)
23.03.2014 07:30 0,4 C 97 % 1006,8 hPa 0,0 l/m 0,0 km/h (0 Bft) SW 225 -0,0 C 16,1 C 0,0 km/h (0 Bft)
23.03.2014 07:35 0,4 C 97 % 1006,8 hPa 0,0 l/m 0,0 km/h (0 Bft) SW 225 -0,0 C 16,1 C 0,0 km/h (0 Bft)
23.03.2014 07:40 0,4 C 97 % 1006,8 hPa 0,0 l/m 0,0 km/h (0 Bft) SW 225 -0,0 C 16,1 C 0,0 km/h (0 Bft)
23.03.2014 07:45 0,6 C 97 % 1006,9 hPa 0,0 l/m 0,0 km/h (0 Bft) SW 225 0,2 C 16,1 C 0,0 km/h (0 Bft)
23.03.2014 07:48 0,6 C 97 % 1006,9 hPa 0,0 l/m 0,0 km/h (0 Bft) SW 225 0,2 C 16,1 C 0,0 km/h (0 Bft)
23.03.2014 07:50 0,6 C 97 % 1006,9 hPa 0,0 l/m 0,0 km/h (0 Bft) SW 225 0,2 C 16,1 C 0,0 km/h (0 Bft)
23.03.2014 07:55 0,7 C 97 % 1006,9 hPa 0,0 l/m 0,0 km/h (0 Bft) SW 225 0,3 C 16,1 C 0,0 km/h (0 Bft)
23.03.2014 08:00 0,7 C 97 % 1006,9 hPa 0,0 l/m 0,0 km/h (0 Bft) SW 225 0,3 C 16,1 C 0,0 km/h (0 Bft)
23.03.2014 08:05 0,7 C 97 % 1006,9 hPa 0,0 l/m 0,0 km/h (0 Bft) SW 225 0,3 C 16,1 C 0,0 km/h (0 Bft)
23.03.2014 08:10 0,8 C 97 % 1006,9 hPa 0,0 l/m 0,0 km/h (0 Bft) SW 225 0,4 C 16,1 C 0,0 km/h (0 Bft)
23.03.2014 08:15 0,7 C 97 % 1006,9 hPa 0,0 l/m 0,0 km/h (0 Bft) SW 225 0,3 C 16,1 C 0,0 km/h (0 Bft)
23.03.2014 08:20 0,7 C 97 % 1006,9 hPa 0,0 l/m 0,0 km/h (0 Bft) SW 225 0,3 C 16,1 C 0,0 km/h (0 Bft)
23.03.2014 08:25 0,9 C 97 % 1007,2 hPa 0,0 l/m 0,0 km/h (0 Bft) SW 225 0,5 C 16,1 C 0,0 km/h (0 Bft)
23.03.2014 08:30 1,1 C 97 % 1007,2 hPa 0,0 l/m 0,0 km/h (0 Bft) SW 225 0,7 C 16,1 C 0,0 km/h (0 Bft)
23.03.2014 08:35 1,1 C 97 % 1007,2 hPa 0,0 l/m 0,0 km/h (0 Bft) SW 225 0,7 C 16,1 C 0,0 km/h (0 Bft)
23.03.2014 08:40 1,1 C 97 % 1007,2 hPa 0,0 l/m 0,0 km/h (0 Bft) SW 225 0,7 C 16,1 C 0,0 km/h (0 Bft)
23.03.2014 08:45 1,0 C 97 % 1007,3 hPa 0,0 l/m 0,0 km/h (0 Bft) SW 225 0,6 C 16,1 C 0,0 km/h (0 Bft)
23.03.2014 08:50 1,0 C 97 % 1007,3 hPa 0,0 l/m 0,0 km/h (0 Bft) SW 225 0,6 C 16,1 C 0,0 km/h (0 Bft)
23.03.2014 08:55 1,1 C 97 % 1007,3 hPa 0,0 l/m 0,0 km/h (0 Bft) SW 225 0,7 C 16,1 C 0,0 km/h (0 Bft)
23.03.2014 09:00 1,2 C 97 % 1007,3 hPa 0,0 l/m 0,0 km/h (0 Bft) SW 225 0,8 C 16,1 C 0,0 km/h (0 Bft)
23.03.2014 09:05 1,2 C 97 % 1007,4 hPa 0,0 l/m 0,0 km/h (0 Bft) SW 225 0,8 C 16,1 C 0,0 km/h (0 Bft)
23.03.2014 09:10 1,4 C 97 % 1007,4 hPa 0,0 l/m 0,0 km/h (0 Bft) SW 225 1,0 C 16,1 C 0,0 km/h (0 Bft)
23.03.2014 09:15 1,4 C 97 % 1007,4 hPa 0,0 l/m 0,0 km/h (0 Bft) SW 225 1,0 C 16,1 C 0,0 km/h (0 Bft)
23.03.2014 09:20 1,5 C 97 % 1007,4 hPa 0,0 l/m 0,0 km/h (0 Bft) SW 225 1,1 C 16,1 C 0,0 km/h (0 Bft)
23.03.2014 09:25 1,6 C 97 % 1007,4 hPa 0,0 l/m 0,0 km/h (0 Bft) SW 225 1,2 C 16,1 C 0,0 km/h (0 Bft)
23.03.2014 09:30 1,6 C 97 % 1007,4 hPa 0,0 l/m 0,0 km/h (0 Bft) SW 225 1,2 C 16,1 C 0,0 km/h (0 Bft)
23.03.2014 09:35 1,3 C 97 % 1007,4 hPa 0,0 l/m 0,0 km/h (0 Bft) SW 225 0,9 C 16,1 C 0,0 km/h (0 Bft)
23.03.2014 09:40 1,6 C 97 % 1007,4 hPa 0,0 l/m 0,0 km/h (0 Bft) SW 225 1,2 C 16,1 C 0,0 km/h (0 Bft)
23.03.2014 09:45 1,7 C 97 % 1006,9 hPa 0,0 l/m 0,0 km/h (0 Bft) SW 225 1,3 C 16,1 C 0,0 km/h (0 Bft)
23.03.2014 09:50 1,7 C 97 % 1006,9 hPa 0,0 l/m 0,0 km/h (0 Bft) SW 225 1,3 C 16,1 C 0,0 km/h (0 Bft)
23.03.2014 09:55 1,6 C 97 % 1006,9 hPa 0,0 l/m 0,0 km/h (0 Bft) SW 225 1,2 C 16,1 C 0,0 km/h (0 Bft)
23.03.2014 10:00 1,6 C 97 % 1006,9 hPa 0,0 l/m 0,0 km/h (0 Bft) SW 225 1,2 C 16,1 C 0,0 km/h (0 Bft)
23.03.2014 10:05 1,6 C 97 % 1007,0 hPa 0,0 l/m 0,0 km/h (0 Bft) SW 225 1,2 C 16,1 C 0,0 km/h (0 Bft)
23.03.2014 10:10 1,5 C 97 % 1007,0 hPa 0,0 l/m 0,0 km/h (0 Bft) SW 225 1,1 C 16,1 C 0,0 km/h (0 Bft)
23.03.2014 10:15 1,6 C 97 % 1007,0 hPa 0,0 l/m 0,0 km/h (0 Bft) SW 225 1,2 C 16,1 C 0,0 km/h (0 Bft)
23.03.2014 10:20 1,5 C 97 % 1007,0 hPa 0,0 l/m 0,0 km/h (0 Bft) SW 225 1,1 C 16,1 C 0,0 km/h (0 Bft)
23.03.2014 10:25 1,5 C 97 % 1007,1 hPa 0,0 l/m 0,0 km/h (0 Bft) SW 225 1,1 C 16,1 C 0,0 km/h (0 Bft)
23.03.2014 10:30 1,4 C 97 % 1007,1 hPa 0,0 l/m 0,0 km/h (0 Bft) SW 225 1,0 C 16,1 C 0,0 km/h (0 Bft)
23.03.2014 10:35 1,5 C 97 % 1007,1 hPa 0,0 l/m 0,0 km/h (0 Bft) SW 225 1,1 C 16,1 C 0,0 km/h (0 Bft)
23.03.2014 10:40 1,7 C 97 % 1007,1 hPa 0,0 l/m 0,0 km/h (0 Bft) SW 225 1,3 C 16,1 C 0,0 km/h (0 Bft)
23.03.2014 10:45 1,9 C 97 % 1007,1 hPa 0,0 l/m 0,0 km/h (0 Bft) SW 225 1,5 C 16,1 C 0,0 km/h (0 Bft)
23.03.2014 10:50 1,8 C 97 % 1007,1 hPa 0,0 l/m 0,0 km/h (0 Bft) SW 225 1,4 C 16,1 C 0,0 km/h (0 Bft)
23.03.2014 10:55 1,6 C 97 % 1007,1 hPa 0,0 l/m 0,0 km/h (0 Bft) SW 225 1,2 C 16,1 C 0,0 km/h (0 Bft)
23.03.2014 11:00 1,7 C 97 % 1007,1 hPa 0,0 l/m 0,0 km/h (0 Bft) SW 225 1,3 C 16,1 C 0,0 km/h (0 Bft)
23.03.2014 11:05 1,9 C 97 % 1006,9 hPa 0,0 l/m 0,0 km/h (0 Bft) SW 225 1,5 C 16,1 C 0,0 km/h (0 Bft)
23.03.2014 11:10 2,4 C 97 % 1006,9 hPa 0,0 l/m 0,0 km/h (0 Bft) SW 225 2,0 C 16,1 C 0,0 km/h (0 Bft)
23.03.2014 11:15 2,5 C 97 % 1006,9 hPa 0,0 l/m 0,0 km/h (0 Bft) SW 225 2,1 C 16,1 C 0,0 km/h (0 Bft)
23.03.2014 11:20 2,3 C 97 % 1006,9 hPa 0,0 l/m 0,0 km/h (0 Bft) SW 225 1,9 C 16,1 C 0,0 km/h (0 Bft)
23.03.2014 11:25 2,2 C 97 % 1007,3 hPa 0,0 l/m 0,0 km/h (0 Bft) SW 225 1,8 C 16,1 C 0,0 km/h (0 Bft)
23.03.2014 11:30 2,1 C 96 % 1007,3 hPa 0,0 l/m 0,0 km/h (0 Bft) SW 225 1,5 C 16,1 C 0,0 km/h (0 Bft)
23.03.2014 11:35 2,2 C 96 % 1007,3 hPa 0,0 l/m 0,0 km/h (0 Bft) SW 225 1,6 C 16,1 C 0,0 km/h (0 Bft)
23.03.2014 11:40 2,3 C 96 % 1007,3 hPa 0,0 l/m 0,0 km/h (0 Bft) SW 225 1,7 C 16,1 C 0,0 km/h (0 Bft)
23.03.2014 11:45 2,5 C 96 % 1007,2 hPa 0,0 l/m 0,0 km/h (0 Bft) SW 225 1,9 C 16,1 C 0,0 km/h (0 Bft)
23.03.2014 11:50 2,6 C 96 % 1007,2 hPa 0,0 l/m 0,0 km/h (0 Bft) SW 225 2,0 C 16,1 C 0,0 km/h (0 Bft)
23.03.2014 11:55 2,5 C 96 % 1007,2 hPa 0,0 l/m 0,0 km/h (0 Bft) SW 225 1,9 C 16,1 C 0,0 km/h (0 Bft)
23.03.2014 12:00 2,3 C 96 % 1007,2 hPa 0,0 l/m 0,0 km/h (0 Bft) SW 225 1,7 C 16,1 C 0,0 km/h (0 Bft)
23.03.2014 12:05 2,3 C 96 % 1007,3 hPa 0,0 l/m 0,0 km/h (0 Bft) SW 225 1,7 C 16,1 C 0,0 km/h (0 Bft)
23.03.2014 12:10 2,1 C 96 % 1007,3 hPa 0,0 l/m 0,0 km/h (0 Bft) SW 225 1,5 C 16,1 C 0,0 km/h (0 Bft)
23.03.2014 12:15 2,0 C 96 % 1007,3 hPa 0,0 l/m 0,0 km/h (0 Bft) SW 225 1,4 C 16,1 C 0,0 km/h (0 Bft)
23.03.2014 12:20 1,8 C 96 % 1007,3 hPa 0,0 l/m 0,0 km/h (0 Bft) SW 225 1,2 C 16,1 C 0,0 km/h (0 Bft)
23.03.2014 12:25 1,8 C 96 % 1007,3 hPa 0,0 l/m 0,0 km/h (0 Bft) SW 225 1,2 C 16,1 C 0,0 km/h (0 Bft)
23.03.2014 12:30 1,8 C 96 % 1007,3 hPa 0,0 l/m 0,0 km/h (0 Bft) SW 225 1,2 C 16,1 C 0,0 km/h (0 Bft)
23.03.2014 12:35 1,9 C 96 % 1007,3 hPa 0,0 l/m 0,0 km/h (0 Bft) SW 225 1,3 C 16,1 C 0,0 km/h (0 Bft)
23.03.2014 12:40 1,9 C 96 % 1007,3 hPa 0,0 l/m 0,0 km/h (0 Bft) SW 225 1,3 C 16,1 C 0,0 km/h (0 Bft)
23.03.2014 12:45 1,9 C 96 % 1007,6 hPa 0,0 l/m 0,0 km/h (0 Bft) SW 225 1,3 C 16,1 C 0,0 km/h (0 Bft)
23.03.2014 12:48 1,8 C 96 % 1007,6 hPa 0,0 l/m 0,0 km/h (0 Bft) SW 225 1,2 C 16,1 C 0,0 km/h (0 Bft)
23.03.2014 12:50 1,8 C 96 % 1007,6 hPa 0,0 l/m 0,0 km/h (0 Bft) SW 225 1,2 C 16,1 C 0,0 km/h (0 Bft)
23.03.2014 12:55 1,8 C 96 % 1007,6 hPa 0,0 l/m 0,0 km/h (0 Bft) SW 225 1,2 C 16,1 C 0,0 km/h (0 Bft)
23.03.2014 13:00 1,7 C 96 % 1007,6 hPa 0,0 l/m 0,0 km/h (0 Bft) SW 225 1,1 C 16,1 C 0,0 km/h (0 Bft)
23.03.2014 13:05 1,7 C 96 % 1007,4 hPa 0,0 l/m 0,0 km/h (0 Bft) SW 225 1,1 C 16,1 C 0,0 km/h (0 Bft)
23.03.2014 13:10 1,6 C 95 % 1007,4 hPa 0,0 l/m 0,0 km/h (0 Bft) SW 225 0,9 C 16,1 C 0,0 km/h (0 Bft)
23.03.2014 13:15 1,5 C 95 % 1007,4 hPa 0,0 l/m 0,0 km/h (0 Bft) SW 225 0,8 C 16,1 C 0,0 km/h (0 Bft)
23.03.2014 13:20 1,6 C 95 % 1007,4 hPa 0,0 l/m 0,0 km/h (0 Bft) SW 225 0,9 C 16,1 C 0,0 km/h (0 Bft)
23.03.2014 13:25 1,8 C 95 % 1007,0 hPa 0,0 l/m 0,0 km/h (0 Bft) SW 225 1,1 C 16,1 C 0,0 km/h (0 Bft)
23.03.2014 13:30 1,9 C 95 % 1007,0 hPa 0,0 l/m 0,0 km/h (0 Bft) SW 225 1,2 C 16,1 C 0,0 km/h (0 Bft)
23.03.2014 13:35 1,9 C 95 % 1007,0 hPa 0,0 l/m 0,0 km/h (0 Bft) SW 225 1,2 C 16,1 C 0,0 km/h (0 Bft)
23.03.2014 13:40 1,9 C 95 % 1007,0 hPa 0,0 l/m 0,0 km/h (0 Bft) SW 225 1,2 C 16,1 C 0,0 km/h (0 Bft)
23.03.2014 13:45 1,9 C 95 % 1007,2 hPa 0,0 l/m 0,0 km/h (0 Bft) SW 225 1,2 C 16,1 C 0,0 km/h (0 Bft)
23.03.2014 13:50 2,3 C 95 % 1007,2 hPa 0,0 l/m 0,0 km/h (0 Bft) SW 225 1,6 C 16,1 C 0,0 km/h (0 Bft)
23.03.2014 13:55 2,4 C 95 % 1007,2 hPa 0,0 l/m 0,0 km/h (0 Bft) SW 225 1,7 C 16,1 C 0,0 km/h (0 Bft)
23.03.2014 14:00 2,6 C 95 % 1007,2 hPa 0,0 l/m 0,0 km/h (0 Bft) SW 225 1,9 C 16,1 C 0,0 km/h (0 Bft)
23.03.2014 14:05 2,7 C 95 % 1006,9 hPa 0,0 l/m 0,0 km/h (0 Bft) SW 225 2,0 C 16,1 C 0,0 km/h (0 Bft)
23.03.2014 14:10 2,6 C 95 % 1006,9 hPa 0,0 l/m 0,0 km/h (0 Bft) SW 225 1,9 C 16,1 C 0,0 km/h (0 Bft)
23.03.2014 14:15 2,6 C 95 % 1006,9 hPa 0,0 l/m 0,0 km/h (0 Bft) SW 225 1,9 C 16,1 C 0,0 km/h (0 Bft)
23.03.2014 14:20 2,6 C 95 % 1006,9 hPa 0,0 l/m 0,0 km/h (0 Bft) SW 225 1,9 C 16,1 C 0,0 km/h (0 Bft)
23.03.2014 14:25 2,5 C 95 % 1007,1 hPa 0,0 l/m 0,0 km/h (0 Bft) SW 225 1,8 C 16,1 C 0,0 km/h (0 Bft)
23.03.2014 14:30 2,2 C 94 % 1007,1 hPa 0,0 l/m 0,0 km/h (0 Bft) SW 225 1,3 C 16,1 C 0,0 km/h (0 Bft)
23.03.2014 14:35 2,1 C 94 % 1007,1 hPa 0,0 l/m 0,0 km/h (0 Bft) SW 225 1,2 C 16,1 C 0,0 km/h (0 Bft)
23.03.2014 14:40 2,4 C 94 % 1007,1 hPa 0,0 l/m 0,0 km/h (0 Bft) SW 225 1,5 C 16,1 C 0,0 km/h (0 Bft)
23.03.2014 14:45 2,2 C 94 % 1007,3 hPa 0,0 l/m 0,0 km/h (0 Bft) SW 225 1,3 C 16,1 C 0,0 km/h (0 Bft)
23.03.2014 14:50 2,1 C 94 % 1007,3 hPa 0,0 l/m 0,0 km/h (0 Bft) SW 225 1,2 C 16,1 C 0,0 km/h (0 Bft)
23.03.2014 14:55 2,0 C 94 % 1007,3 hPa 0,0 l/m 0,0 km/h (0 Bft) SW 225 1,1 C 16,1 C 0,0 km/h (0 Bft)
23.03.2014 15:00 2,0 C 94 % 1007,3 hPa 0,0 l/m 0,0 km/h (0 Bft) SW 225 1,1 C 16,1 C 0,0 km/h (0 Bft)
23.03.2014 15:05 2,0 C 94 % 1007,2 hPa 0,0 l/m 0,0 km/h (0 Bft) SW 225 1,1 C 16,1 C 0,0 km/h (0 Bft)
23.03.2014 15:10 1,9 C 94 % 1007,2 hPa 0,0 l/m 0,0 km/h (0 Bft) SW 225 1,0 C 16,1 C 0,0 km/h (0 Bft)
23.03.2014 15:15 1,8 C 94 % 1007,2 hPa 0,0 l/m 0,0 km/h (0 Bft) SW 225 0,9 C 16,1 C 0,0 km/h (0 Bft)
23.03.2014 15:20 1,8 C 94 % 1007,2 hPa 0,0 l/m 0,0 km/h (0 Bft) SW 225 0,9 C 16,1 C 0,0 km/h (0 Bft)
23.03.2014 15:25 1,8 C 94 % 1007,3 hPa 0,0 l/m 0,0 km/h (0 Bft) SW 225 0,9 C 16,1 C 0,0 km/h (0 Bft)
23.03.2014 15:30 1,7 C 95 % 1007,3 hPa 0,0 l/m 0,0 km/h (0 Bft) SW 225 1,0 C 16,1 C 0,0 km/h (0 Bft)
23.03.2014 15:35 1,8 C 95 % 1007,3 hPa 0,0 l/m 0,0 km/h (0 Bft) SW 225 1,1 C 16,1 C 0,0 km/h (0 Bft)
23.03.2014 15:40 1,5 C 95 % 1007,3 hPa 0,0 l/m 0,0 km/h (0 Bft) SW 225 0,8 C 16,1 C 0,0 km/h (0 Bft)
23.03.2014 15:45 1,6 C 95 % 1007,5 hPa 0,0 l/m 0,0 km/h (0 Bft) SW 225 0,9 C 16,1 C 0,0 km/h (0 Bft)
23.03.2014 15:50 1,7 C 95 % 1007,5 hPa 0,0 l/m 0,0 km/h (0 Bft) SW 225 1,0 C 16,1 C 0,0 km/h (0 Bft)
23.03.2014 15:55 1,8 C 95 % 1007,5 hPa 0,0 l/m 0,0 km/h (0 Bft) SW 225 1,1 C 16,1 C 0,0 km/h (0 Bft)
23.03.2014 16:00 1,7 C 95 % 1007,5 hPa 0,0 l/m 0,0 km/h (0 Bft) SW 225 1,0 C 16,1 C 0,0 km/h (0 Bft)
23.03.2014 16:05 1,5 C 95 % 1007,3 hPa 0,0 l/m 0,0 km/h (0 Bft) SW 225 0,8 C 16,1 C 0,0 km/h (0 Bft)
23.03.2014 16:10 1,3 C 94 % 1007,3 hPa 0,0 l/m 0,0 km/h (0 Bft) SW 225 0,4 C 16,1 C 0,0 km/h (0 Bft)
23.03.2014 16:15 1,2 C 94 % 1007,3 hPa 0,0 l/m 0,0 km/h (0 Bft) SW 225 0,3 C 16,1 C 0,0 km/h (0 Bft)
23.03.2014 16:20 1,1 C 94 % 1007,3 hPa 0,0 l/m 0,0 km/h (0 Bft) SW 225 0,2 C 16,1 C 0,0 km/h (0 Bft)
23.03.2014 16:25 1,1 C 94 % 1007,6 hPa 0,0 l/m 0,0 km/h (0 Bft) SW 225 0,2 C 16,1 C 0,0 km/h (0 Bft)
23.03.2014 16:30 1,1 C 94 % 1007,6 hPa 0,0 l/m 0,0 km/h (0 Bft) SW 225 0,2 C 16,1 C 0,0 km/h (0 Bft)
23.03.2014 16:35 1,1 C 95 % 1007,6 hPa 0,0 l/m 0,0 km/h (0 Bft) SW 225 0,4 C 16,1 C 0,0 km/h (0 Bft)
23.03.2014 16:40 1,0 C 95 % 1007,6 hPa 0,0 l/m 0,0 km/h (0 Bft) SW 225 0,3 C 16,1 C 0,0 km/h (0 Bft)
23.03.2014 16:45 1,0 C 95 % 1007,8 hPa 0,0 l/m 0,0 km/h (0 Bft) SW 225 0,3 C 16,1 C 0,0 km/h (0 Bft)
23.03.2014 16:50 1,0 C 95 % 1007,8 hPa 0,0 l/m 0,0 km/h (0 Bft) SW 225 0,3 C 16,1 C 0,0 km/h (0 Bft)
23.03.2014 16:55 0,9 C 95 % 1007,8 hPa 0,0 l/m 0,0 km/h (0 Bft) SW 225 0,2 C 16,1 C 0,0 km/h (0 Bft)
23.03.2014 17:00 0,8 C 95 % 1007,8 hPa 0,0 l/m 0,0 km/h (0 Bft) SW 225 0,1 C 16,1 C 0,0 km/h (0 Bft)
23.03.2014 17:05 0,8 C 95 % 1008,1 hPa 0,0 l/m 0,0 km/h (0 Bft) SW 225 0,1 C 16,1 C 0,0 km/h (0 Bft)
23.03.2014 17:10 0,7 C 95 % 1008,1 hPa 0,0 l/m 0,0 km/h (0 Bft) SW 225 -0,0 C 16,1 C 0,0 km/h (0 Bft)
23.03.2014 17:15 0,8 C 95 % 1008,1 hPa 0,0 l/m 0,0 km/h (0 Bft) SW 225 0,1 C 16,1 C 0,0 km/h (0 Bft)
23.03.2014 17:20 1,0 C 95 % 1008,1 hPa 0,0 l/m 0,0 km/h (0 Bft) SW 225 0,3 C 16,1 C 0,0 km/h (0 Bft)
23.03.2014 17:25 1,0 C 95 % 1006,8 hPa 0,0 l/m 0,0 km/h (0 Bft) SW 225 0,3 C 16,1 C 0,0 km/h (0 Bft)
23.03.2014 17:30 0,9 C 96 % 1006,8 hPa 0,0 l/m 0,0 km/h (0 Bft) SW 225 0,3 C 16,1 C 0,0 km/h (0 Bft)
23.03.2014 17:35 1,0 C 95 % 1006,8 hPa 0,0 l/m 0,0 km/h (0 Bft) SW 225 0,3 C 16,1 C 0,0 km/h (0 Bft)
23.03.2014 17:40 0,9 C 96 % 1006,8 hPa 0,0 l/m 0,0 km/h (0 Bft) SW 225 0,3 C 16,1 C 0,0 km/h (0 Bft)
23.03.2014 17:45 0,8 C 96 % 1006,7 hPa 0,0 l/m 0,0 km/h (0 Bft) SW 225 0,2 C 16,1 C 0,0 km/h (0 Bft)
23.03.2014 17:48 0,7 C 96 % 1006,7 hPa 0,0 l/m 0,0 km/h (0 Bft) SW 225 0,1 C 16,1 C 0,0 km/h (0 Bft)
23.03.2014 17:50 0,7 C 96 % 1006,7 hPa 0,0 l/m 0,0 km/h (0 Bft) SW 225 0,1 C 16,1 C 0,0 km/h (0 Bft)
23.03.2014 17:55 0,6 C 96 % 1006,7 hPa 0,0 l/m 0,0 km/h (0 Bft) SW 225 0,0 C 16,1 C 0,0 km/h (0 Bft)
23.03.2014 18:00 0,4 C 96 % 1006,7 hPa 0,0 l/m 0,0 km/h (0 Bft) SW 225 -0,2 C 16,1 C 0,0 km/h (0 Bft)
23.03.2014 18:05 0,4 C 96 % 1007,4 hPa 0,0 l/m 0,0 km/h (0 Bft) SW 225 -0,2 C 16,1 C 0,0 km/h (0 Bft)
23.03.2014 18:10 0,4 C 96 % 1007,4 hPa 0,0 l/m 0,0 km/h (0 Bft) SW 225 -0,2 C 16,1 C 0,0 km/h (0 Bft)
23.03.2014 18:15 0,3 C 96 % 1007,4 hPa 0,0 l/m 0,0 km/h (0 Bft) SW 225 -0,3 C 16,1 C 0,0 km/h (0 Bft)
23.03.2014 18:20 0,2 C 96 % 1007,4 hPa 0,0 l/m 0,0 km/h (0 Bft) SW 225 -0,4 C 16,1 C 0,0 km/h (0 Bft)
23.03.2014 18:25 0,2 C 96 % 1007,7 hPa 0,0 l/m 0,0 km/h (0 Bft) SW 225 -0,4 C 16,1 C 0,0 km/h (0 Bft)
23.03.2014 18:30 0,2 C 96 % 1007,7 hPa 0,0 l/m 0,0 km/h (0 Bft) SW 225 -0,4 C 16,1 C 0,0 km/h (0 Bft)
23.03.2014 18:35 0,2 C 96 % 1007,7 hPa 0,0 l/m 0,0 km/h (0 Bft) SW 225 -0,4 C 16,1 C 0,0 km/h (0 Bft)
23.03.2014 18:40 0,1 C 96 % 1007,7 hPa 0,0 l/m 0,0 km/h (0 Bft) SW 225 -0,5 C 16,1 C 0,0 km/h (0 Bft)
23.03.2014 18:45 0,1 C 96 % 1007,8 hPa 0,0 l/m 0,0 km/h (0 Bft) SW 225 -0,5 C 16,1 C 0,0 km/h (0 Bft)
23.03.2014 18:50 0,1 C 96 % 1007,8 hPa 0,0 l/m 0,0 km/h (0 Bft) SW 225 -0,5 C 16,1 C 0,0 km/h (0 Bft)
23.03.2014 18:55 0,1 C 96 % 1007,8 hPa 0,0 l/m 0,0 km/h (0 Bft) SW 225 -0,5 C 16,1 C 0,0 km/h (0 Bft)
23.03.2014 19:00 0,1 C 96 % 1007,8 hPa 0,0 l/m 0,0 km/h (0 Bft) SW 225 -0,5 C 16,1 C 0,0 km/h (0 Bft)
23.03.2014 19:05 0,1 C 96 % 1007,7 hPa 0,0 l/m 0,0 km/h (0 Bft) SW 225 -0,5 C 16,1 C 0,0 km/h (0 Bft)
23.03.2014 19:10 0,1 C 96 % 1007,7 hPa 0,0 l/m 0,0 km/h (0 Bft) SW 225 -0,5 C 16,1 C 0,0 km/h (0 Bft)
23.03.2014 19:15 0,1 C 96 % 1007,7 hPa 0,0 l/m 0,0 km/h (0 Bft) SW 225 -0,5 C 16,1 C 0,0 km/h (0 Bft)
23.03.2014 19:20 0,1 C 96 % 1007,7 hPa 0,0 l/m 0,0 km/h (0 Bft) SW 225 -0,5 C 16,1 C 0,0 km/h (0 Bft)
23.03.2014 19:25 0,1 C 96 % 1007,8 hPa 0,0 l/m 0,0 km/h (0 Bft) SW 225 -0,5 C 16,1 C 0,0 km/h (0 Bft)
23.03.2014 19:30 0,1 C 96 % 1007,8 hPa 0,0 l/m 0,0 km/h (0 Bft) SW 225 -0,5 C 16,1 C 0,0 km/h (0 Bft)
23.03.2014 19:35 0,1 C 96 % 1007,8 hPa 0,0 l/m 0,0 km/h (0 Bft) SW 225 -0,5 C 16,1 C 0,0 km/h (0 Bft)
23.03.2014 19:40 0,1 C 96 % 1007,8 hPa 0,0 l/m 0,0 km/h (0 Bft) SW 225 -0,5 C 16,1 C 0,0 km/h (0 Bft)
23.03.2014 19:45 0,1 C 96 % 1007,9 hPa 0,0 l/m 0,0 km/h (0 Bft) SW 225 -0,5 C 16,1 C 0,0 km/h (0 Bft)
23.03.2014 19:50 0,1 C 97 % 1007,9 hPa 0,0 l/m 0,0 km/h (0 Bft) SW 225 -0,3 C 16,1 C 0,0 km/h (0 Bft)
23.03.2014 19:55 0,1 C 97 % 1007,9 hPa 0,0 l/m 0,0 km/h (0 Bft) SW 225 -0,3 C 16,1 C 0,0 km/h (0 Bft)
23.03.2014 20:00 0,1 C 97 % 1007,9 hPa 0,0 l/m 0,0 km/h (0 Bft) SW 225 -0,3 C 16,1 C 0,0 km/h (0 Bft)
23.03.2014 20:05 0,1 C 97 % 1007,9 hPa 0,0 l/m 0,0 km/h (0 Bft) SW 225 -0,3 C 16,1 C 0,0 km/h (0 Bft)
23.03.2014 20:10 0,1 C 97 % 1007,9 hPa 0,0 l/m 0,0 km/h (0 Bft) SW 225 -0,3 C 16,1 C 0,0 km/h (0 Bft)
23.03.2014 20:15 0,1 C 97 % 1007,9 hPa 0,0 l/m 0,0 km/h (0 Bft) SW 225 -0,3 C 16,1 C 0,0 km/h (0 Bft)
23.03.2014 20:20 0,1 C 97 % 1007,9 hPa 0,0 l/m 0,0 km/h (0 Bft) SW 225 -0,3 C 16,1 C 0,0 km/h (0 Bft)
23.03.2014 20:25 0,1 C 97 % 1008,1 hPa 0,0 l/m 0,0 km/h (0 Bft) SW 225 -0,3 C 16,1 C 0,0 km/h (0 Bft)
23.03.2014 20:30 0,1 C 97 % 1008,1 hPa 0,0 l/m 0,0 km/h (0 Bft) SW 225 -0,3 C 16,1 C 0,0 km/h (0 Bft)
23.03.2014 20:35 0,1 C 97 % 1008,1 hPa 0,0 l/m 0,0 km/h (0 Bft) SW 225 -0,3 C 16,1 C 0,0 km/h (0 Bft)
23.03.2014 20:40 0,1 C 97 % 1008,1 hPa 0,0 l/m 0,0 km/h (0 Bft) SW 225 -0,3 C 16,1 C 0,0 km/h (0 Bft)
23.03.2014 20:45 0,1 C 97 % 1007,9 hPa 0,0 l/m 0,0 km/h (0 Bft) SW 225 -0,3 C 16,1 C 0,0 km/h (0 Bft)
23.03.2014 20:50 0,1 C 97 % 1007,9 hPa 0,0 l/m 0,0 km/h (0 Bft) SW 225 -0,3 C 16,1 C 0,0 km/h (0 Bft)
23.03.2014 20:55 0,1 C 97 % 1007,9 hPa 0,0 l/m 0,0 km/h (0 Bft) SW 225 -0,3 C 16,1 C 0,0 km/h (0 Bft)
23.03.2014 21:00 0,1 C 97 % 1007,9 hPa 0,0 l/m 0,0 km/h (0 Bft) SW 225 -0,3 C 16,1 C 0,0 km/h (0 Bft)
23.03.2014 21:05 0,1 C 97 % 1008,1 hPa 0,0 l/m 0,0 km/h (0 Bft) SW 225 -0,3 C 16,1 C 0,0 km/h (0 Bft)
23.03.2014 21:10 0,1 C 97 % 1008,1 hPa 0,0 l/m 0,0 km/h (0 Bft) SW 225 -0,3 C 16,1 C 0,0 km/h (0 Bft)
23.03.2014 21:15 0,1 C 97 % 1008,1 hPa 0,0 l/m 0,0 km/h (0 Bft) SW 225 -0,3 C 16,1 C 0,0 km/h (0 Bft)
23.03.2014 21:21 0,1 C 97 % 1008,1 hPa 0,0 l/m 0,0 km/h (0 Bft) SW 225 -0,3 C 16,1 C 0,0 km/h (0 Bft)
23.03.2014 21:25 0,1 C 97 % 1008,1 hPa 0,0 l/m 0,0 km/h (0 Bft) SW 225 -0,3 C 16,1 C 0,0 km/h (0 Bft)
23.03.2014 21:30 0,1 C 97 % 1008,1 hPa 0,0 l/m 0,0 km/h (0 Bft) SW 225 -0,3 C 16,1 C 0,0 km/h (0 Bft)
23.03.2014 21:35 0,1 C 97 % 1008,1 hPa 0,0 l/m 0,0 km/h (0 Bft) SW 225 -0,3 C 16,1 C 0,0 km/h (0 Bft)
23.03.2014 21:40 0,1 C 97 % 1008,1 hPa 0,0 l/m 0,0 km/h (0 Bft) SW 225 -0,3 C 16,1 C 0,0 km/h (0 Bft)
23.03.2014 21:45 0,1 C 97 % 1008,1 hPa 0,0 l/m 0,0 km/h (0 Bft) SW 225 -0,3 C 16,1 C 0,0 km/h (0 Bft)
23.03.2014 21:50 0,1 C 97 % 1008,1 hPa 0,0 l/m 0,0 km/h (0 Bft) SW 225 -0,3 C 16,1 C 0,0 km/h (0 Bft)
23.03.2014 21:55 0,1 C 97 % 1008,1 hPa 0,0 l/m 0,0 km/h (0 Bft) SW 225 -0,3 C 16,1 C 0,0 km/h (0 Bft)
23.03.2014 22:00 0,1 C 97 % 1008,1 hPa 0,0 l/m 0,0 km/h (0 Bft) SW 225 -0,3 C 16,1 C 0,0 km/h (0 Bft)
23.03.2014 22:05 0,1 C 97 % 1008,4 hPa 0,0 l/m 0,0 km/h (0 Bft) SW 225 -0,3 C 16,1 C 0,0 km/h (0 Bft)
23.03.2014 22:10 0,1 C 97 % 1008,4 hPa 0,0 l/m 0,0 km/h (0 Bft) SW 225 -0,3 C 16,1 C 0,0 km/h (0 Bft)
23.03.2014 22:15 0,1 C 97 % 1008,4 hPa 0,0 l/m 0,0 km/h (0 Bft) SW 225 -0,3 C 16,1 C 0,0 km/h (0 Bft)
23.03.2014 22:20 0,1 C 97 % 1008,4 hPa 0,0 l/m 0,0 km/h (0 Bft) SW 225 -0,3 C 16,1 C 0,0 km/h (0 Bft)
23.03.2014 22:25 0,1 C 97 % 1008,7 hPa 0,0 l/m 0,0 km/h (0 Bft) SW 225 -0,3 C 16,1 C 0,0 km/h (0 Bft)
23.03.2014 22:30 0,1 C 97 % 1008,7 hPa 0,0 l/m 0,0 km/h (0 Bft) SW 225 -0,3 C 16,1 C 0,0 km/h (0 Bft)
23.03.2014 22:35 0,1 C 97 % 1008,7 hPa 0,0 l/m 0,0 km/h (0 Bft) SW 225 -0,3 C 16,1 C 0,0 km/h (0 Bft)
23.03.2014 22:40 0,1 C 97 % 1008,7 hPa 0,0 l/m 0,0 km/h (0 Bft) SW 225 -0,3 C 16,1 C 0,0 km/h (0 Bft)
23.03.2014 22:43 0,1 C 97 % 1008,4 hPa 0,0 l/m 0,0 km/h (0 Bft) SW 225 -0,3 C 16,1 C 0,0 km/h (0 Bft)
23.03.2014 22:45 0,1 C 97 % 1008,4 hPa 0,0 l/m 0,0 km/h (0 Bft) SW 225 -0,3 C 16,1 C 0,0 km/h (0 Bft)
23.03.2014 22:50 0,1 C 97 % 1008,4 hPa 0,0 l/m 0,0 km/h (0 Bft) SW 225 -0,3 C 16,1 C 0,0 km/h (0 Bft)
23.03.2014 22:55 0,1 C 97 % 1008,4 hPa 0,0 l/m 0,0 km/h (0 Bft) SW 225 -0,3 C 16,1 C 0,0 km/h (0 Bft)
23.03.2014 23:00 0,1 C 97 % 1008,4 hPa 0,0 l/m 0,0 km/h (0 Bft) SW 225 -0,3 C 16,1 C 0,0 km/h (0 Bft)
23.03.2014 23:05 0,1 C 97 % 1008,4 hPa 0,0 l/m 0,0 km/h (0 Bft) SW 225 -0,3 C 16,1 C 0,0 km/h (0 Bft)
23.03.2014 23:10 0,1 C 97 % 1008,4 hPa 0,0 l/m 0,0 km/h (0 Bft) SW 225 -0,3 C 16,1 C 0,0 km/h (0 Bft)
23.03.2014 23:15 0,1 C 97 % 1008,4 hPa 0,0 l/m 0,0 km/h (0 Bft) SW 225 -0,3 C 16,1 C 0,0 km/h (0 Bft)
23.03.2014 23:20 0,1 C 97 % 1008,4 hPa 0,0 l/m 0,0 km/h (0 Bft) SW 225 -0,3 C 16,1 C 0,0 km/h (0 Bft)
23.03.2014 23:25 0,1 C 97 % 1008,2 hPa 0,0 l/m 0,0 km/h (0 Bft) SW 225 -0,3 C 16,1 C 0,0 km/h (0 Bft)
23.03.2014 23:30 0,1 C 97 % 1008,2 hPa 0,0 l/m 0,0 km/h (0 Bft) SW 225 -0,3 C 16,1 C 0,0 km/h (0 Bft)
23.03.2014 23:35 0,1 C 97 % 1008,2 hPa 0,0 l/m 0,0 km/h (0 Bft) SW 225 -0,3 C 16,1 C 0,0 km/h (0 Bft)
23.03.2014 23:40 0,1 C 97 % 1008,2 hPa 0,0 l/m 0,0 km/h (0 Bft) SW 225 -0,3 C 16,1 C 0,0 km/h (0 Bft)
23.03.2014 23:45 0,1 C 97 % 1008,4 hPa 0,0 l/m 0,0 km/h (0 Bft) SW 225 -0,3 C 16,1 C 0,0 km/h (0 Bft)
23.03.2014 23:50 0,1 C 97 % 1008,4 hPa 0,0 l/m 0,0 km/h (0 Bft) SW 225 -0,3 C 16,1 C 0,0 km/h (0 Bft)
23.03.2014 23:55 0,1 C 97 % 1008,4 hPa 0,0 l/m 0,0 km/h (0 Bft) SW 225 -0,3 C 16,1 C 0,0 km/h (0 Bft)
_ Min-Zeit 23:55 16:30 18:00 - 23:55 - - 19:45 23:55 23:55
Minimum _ 0,1 C 94 % 1006,7 hPa - 0,0 km/h (0 Bft) - - -0,5 C 16,1 C 0,0 km/h (0 Bft)
_ Max-Zeit 01:40 23:55 22:40 23:55 23:55 - - 01:40 23:55 23:55
Maximum _ 3,2 C 97 % 1008,7 hPa 0,0 l/m 0,0 km/h
SW (0 Bft)
- - 2,6 C 16,1 C 0,0 km/h
SW (0 Bft)
Durchschnitt _ 1,2 C 96 % 1007,5 hPa #0,0 l/m 0,0 km/h (0 Bft) - - - 0,7 C 16,1 C 0,0 km/h (0 Bft)